map of EDO home
Great Circle Mapper logo
EDO - Airport
Location
City:  Edremit/Korfez, Turkey
ICAO / IATA:LTFD / EDO

Details
Type:Airport (Aerodrome, Airfield)
Latitude:3933'17"N (39.554589)
Longitude:2700'50"E (27.013833)
Datum:WGS 1984
Elevation:50 ft (15 m)
Variation:4.7E (WMM2015 magnetic declination)
Runways:1
Longest:6824 × 98 ft (2080 × 30 m), paved

Time
Time Zone:UTC+2 (DST+3)
Local Time:

Weather
METAR:LTFD 211330Z 08004KT 040V120 2500 -SHRA BR FEW010 BKN025 BKN090 11/10 Q1018 RESHRA RMK RWY23 VRB02KT

Related Locations
Nearby:
Farthest:NTAV: 11307 mi / 18197 km
Raivavae, Tubuai Islands, Austral Islands, PF

Find:

   beyond  
but within

Other Information
Maps:
NOTAMs:
Links:
Sources:

  
flag of Turkey   

Sectional Chart

Flight Planning
at skyvector.com

Satellite Image

Google Maps Satellite View

 

Copyright © 2004-2014 Karl L. Swartz. All rights reserved.
The Great Circle Mapper name and logo are trademarks of the Great Circle Mapper.
All other trademarks mentioned herein belong to their respective owners.
Please see credits for attibutions and further copyright information.

  Follow gcmap on Facebook Follow gcmap on Twitter

hCard Microformat

Geo Microformat